Regional Weather Roundup
Issued by NWS

Home | Current Version | Previous Version | Text Only | Print | Product List | Glossary On
Versions: 1 2 3 4 5 6 7 8 9 10 11 12 13 14 15 16 17 18 19 20 21 22 23 24 25 26 27 28 29 30 31 32 33 34 35 36 37 38 39 40 41 42 43 44 45 46 47 48 49 50
434
ASCA42 TJSJ 232010
RWRPR
PUERTO RICO/U.S. VIRGIN ISLANDS HOURLY WEATHER ROUNDUP
NATIONAL WEATHER SERVICE SAN JUAN PR
400 PM AST MON OCT 23 2017

PRZ001>002-007>008-010-232100-
PUERTO RICO

CITY           SKY/WX    TMP DP  RH WIND       PRES   REMARKS
SAN JUAN LMM   MOSUNNY   84  75  74 NE16G25   29.92F HX  92
PONCE          MOSUNNY   81  70  69 N2        29.92S
AGUADILLA      CLOUDY    82  72  69 E17       29.95R
$$

VIZ001>002-232100-
U.S. VIRGIN ISLANDS

CITY           SKY/WX    TMP DP  RH WIND       PRES   REMARKS
CHARLOTTE AMA    N/A     84  73  70 E10       29.92S HX  91
$$

HOURLY WEATHER ROUNDUP FOR THE NEWS MEDIA

CITY           SKY/WX    TMP DP  RH WIND       PRES   REMARKS
NEW YORK       CLOUDY    70  64  83 SE17      30.16F
NEWARK         CLOUDY    71  63  75 SE12G20   30.14F
CHICAGO        CLOUDY    54  49  83 NW9       29.69F
HARTFORD       MOSUNNY   70  64  81 S10       30.23F
BOSTON         PTSUNNY   59  57  93 E9        30.24F FOG
DALLAS         MOSUNNY   81  40  23 W8        30.06F
PHILADELPHIA   CLOUDY    74  63  68 SE10      30.10F
LOS ANGELES    SUNNY     99  50  19 W8        30.04F HX  96
WASHINGTON DC  CLOUDY    73  62  68 SE14G22   29.99F



USA.gov is the U.S. government's official web portal to all federal, state and local government web resources and services.